Location: Brienzwiler
(46.7508°N, 8.1014°E)
Time: 01:38:30
(UTC+00:00)

JB-3 - Pass Details

Date: 05 July 2020
Orbit: 526 x 590 km, 97.3° (Epoch: 11 August)

Event Time Altitude Azimuth Distance (km) Brightness Sun altitude
Rises 21:41:24 0° 13° (NNE) 2,693 8.7 -16.2°
Reaches altitude 10° 21:43:32 10° 14° (NNE) 1,791 7.7 -16.4°
Maximum altitude 21:47:24 82° 101° (ESE) 540 4.1 -16.6°
Enters shadow 21:49:07 32° 187° (S) 929 5.0 -16.8°
